This is the latest recevied weather packets stored in our database for station/object OE3MNS-13. If no packets are shown the sender has not sent any weather packets the latest 10 day(s).
| Time | Temp. | Humidity | Pressure | Rain* | Wind** | Luminosity | Snow |
|---|---|---|---|---|---|---|---|
| 1778360121 | 12.22° C | 65% | 1017.5 hPa | 1.02 mm | - | 0 W/m² | - |
| 1778359521 | 12.22° C | 66% | 1017.5 hPa | 1.02 mm | - | 0 W/m² | - |
| 1778358921 | 12.22° C | 67% | 1017.5 hPa | 1.02 mm | - | 0 W/m² | - |
| 1778358318 | 12.22° C | 67% | 1017.4 hPa | 1.02 mm | - | 0 W/m² | - |
| 1778357722 | 12.78° C | 68% | 1017.4 hPa | 1.02 mm | - | 0 W/m² | - |
| 1778357121 | 12.78° C | 69% | 1017.4 hPa | 1.02 mm | - | 0 W/m² | - |
| 1778356818 | 12.78° C | 68% | 1017.3 hPa | 1.02 mm | - | 0 W/m² | - |
| 1778356222 | 13.33° C | 67% | 1017.3 hPa | 1.02 mm | - | 0 W/m² | - |
| 1778355919 | 13.33° C | 68% | 1017.2 hPa | 1.02 mm | - | 0 W/m² | - |
| 1778355319 | 13.33° C | 68% | 1017 hPa | 1.02 mm | - | 0 W/m² | - |
| 1778354721 | 13.89° C | 68% | 1016.9 hPa | 1.02 mm | - | 0 W/m² | - |
| 1778354119 | 13.89° C | 67% | 1016.8 hPa | 1.02 mm | - | 0 W/m² | - |
| 1778353520 | 13.89° C | 67% | 1016.7 hPa | 1.02 mm | - | 0 W/m² | - |
| 1778353220 | 14.44° C | 66% | 1016.6 hPa | 1.02 mm | - | 0 W/m² | - |
| 1778352620 | 14.44° C | 66% | 1016.3 hPa | 1.02 mm | - | 0 W/m² | - |
| 1778352319 | 15° C | 66% | 1016.3 hPa | 1.02 mm | - | 0 W/m² | - |
| 1778352018 | 15° C | 65% | 1016.3 hPa | 1.02 mm | - | 1 W/m² | - |
| 1778351422 | 15.56° C | 64% | 1016.3 hPa | 1.02 mm | - | 3 W/m² | - |
| 1778351122 | 16.11° C | 63% | 1016.3 hPa | 1.02 mm | - | 4 W/m² | - |
| 1778350817 | 16.11° C | 62% | 1016.3 hPa | 1.02 mm | - | 6 W/m² | - |
| 1778350220 | 17.22° C | 58% | 1016.4 hPa | 1.02 mm | - | 12 W/m² | - |
| 1778349920 | 17.78° C | 57% | 1016.4 hPa | 1.02 mm | - | 17 W/m² | - |
| 1778349320 | 18.33° C | 54% | 1016.3 hPa | 1.02 mm | - | 22 W/m² | - |
| 1778348720 | 18.89° C | 53% | 1016.3 hPa | 1.02 mm | - | 32 W/m² | - |
| 1778348418 | 18.89° C | 52% | 1016.2 hPa | 1.02 mm | - | 40 W/m² | - |
* Rain latest hour (hover to see other rain measurements)
** Current wind speed in m/s (hover to see current wind gust speed)